Saipan, MP

8:39 AM ChST on March 31, 2017 (GMT +1000)
Saipan International

Weather History for PGSN - October, 2013

Change the Weather History Date:

Tuesday, October 15, 2013

  Actual Average Record
Temperature  
Mean Temperature 81 °F -  
Max Temperature 87 °F 84 °F 89 °F (2016)
Min Temperature 75 °F 76 °F 71 °F (2000)
Cooling Degree Days 16    
Growing Degree Days 31 (Base 50)    
Moisture  
Dew Point 75 °F    
Average Humidity 82    
Maximum Humidity 94    
Minimum Humidity 72    
Precipitation  
Precipitation 0.95 in - - ()
Sea Level Pressure  
Sea Level Pressure 29.87 in    
Wind  
Wind Speed 7 mph (NW)    
Max Wind Speed 24 mph    
Max Gust Speed 51 mph    
Visibility 9 miles    
Events Rain    
Averages and records for this station are not official NWS values.
T = Trace of Precipitation, MM = Missing Value Source: NWS Daily Summary

Daily Weather History Graph

Daily Weather History Graph

Search for Another Location

Airport or City:

Trip Planner

Search our weather history database for the weather conditions in past years. The results will help you decide how hot, cold, wet, or windy it might be!

Date:

Astronomy

Oct. 15, 2013 Rise Set
Actual Time 6:08 AM ChST 5:56 PM ChST
Civil Twilight 5:47 AM ChST 6:18 PM ChST
Nautical Twilight 5:22 AM ChST 6:43 PM ChST
Astronomical Twilight 4:57 AM ChST 7:08 PM ChST
Moon 3:07 PM ChST (10/15) 2:25 AM ChST (10/15)
Length of Visible Light 12h 31m
Length of Day
11h 48m
Waxing Gibbous, 83% of the Moon is Illuminated
Oct 15
Waxing Gibbous
Oct 19
Full
Oct 27
Last Quarter
Nov 3
New
Nov 10
First Quarter

Hourly Weather History & Observations

Time (ChST) Temp. Heat Index Dew Point Humidity Pressure Visibility Wind Dir Wind Speed Gust Speed Precip Events Conditions
12:54 AM 79.0 °F - 72.0 °F 79% 29.95 in 10.0 mi Calm Calm - N/A   Clear
1:54 AM 78.1 °F - 70.0 °F 76% 29.93 in 10.0 mi Calm Calm - N/A   Clear
2:54 AM 78.1 °F - 70.0 °F 76% 29.92 in 10.0 mi North 3.5 mph - N/A   Clear
3:54 AM 79.0 °F - 75.0 °F 88% 29.92 in 10.0 mi North 4.6 mph - N/A   Clear
4:54 AM 79.0 °F - 75.0 °F 88% 29.91 in 10.0 mi Calm Calm - N/A   Clear
5:54 AM 79.0 °F - 75.0 °F 88% 29.91 in 10.0 mi Calm Calm - N/A   Clear
6:54 AM 81.0 °F 87.3 °F 75.9 °F 85% 29.93 in 10.0 mi Calm Calm - N/A   Scattered Clouds
7:54 AM 84.0 °F 92.6 °F 75.9 °F 76% 29.94 in 10.0 mi WNW 3.5 mph - N/A   Scattered Clouds
8:54 AM 84.0 °F 92.6 °F 75.9 °F 76% 29.95 in 10.0 mi NW 5.8 mph - N/A   Scattered Clouds
9:54 AM 87.1 °F 98.8 °F 77.0 °F 72% 29.95 in 10.0 mi NW 5.8 mph - N/A   Scattered Clouds
10:54 AM 86.0 °F 96.9 °F 77.0 °F 74% 29.93 in 10.0 mi NW 10.4 mph - N/A   Scattered Clouds
11:54 AM 86.0 °F 96.0 °F 75.9 °F 72% 29.91 in 10.0 mi NW 9.2 mph 18.4 mph N/A   Scattered Clouds
12:54 PM 86.0 °F 96.0 °F 75.9 °F 72% 29.89 in 10.0 mi NW 12.7 mph - N/A   Mostly Cloudy
1:54 PM 86.0 °F 96.9 °F 77.0 °F 74% 29.87 in 10.0 mi NW 12.7 mph - N/A   Scattered Clouds
2:54 PM 87.1 °F 98.8 °F 77.0 °F 72% 29.85 in 10.0 mi NW 11.5 mph - N/A   Scattered Clouds
3:54 PM 84.9 °F 94.1 °F 75.9 °F 74% 29.85 in 10.0 mi NW 11.5 mph 19.6 mph N/A   Partly Cloudy
4:54 PM 82.9 °F 90.8 °F 75.9 °F 79% 29.85 in 10.0 mi NW 11.5 mph 20.7 mph N/A   Scattered Clouds
5:54 PM 82.0 °F 87.9 °F 73.9 °F 76% 29.85 in 10.0 mi NW 12.7 mph - N/A   Partly Cloudy
6:54 PM 82.0 °F 88.6 °F 75.0 °F 79% 29.86 in 10.0 mi NW 12.7 mph - N/A   Partly Cloudy
7:54 PM 82.0 °F 89.4 °F 75.9 °F 82% 29.87 in 10.0 mi NW 13.8 mph 19.6 mph N/A   Mostly Cloudy
8:08 PM 82.4 °F 89.5 °F 75.2 °F 79% 29.80 in 10.0 mi NW 16.1 mph 20.7 mph N/A   Mostly Cloudy
8:15 PM 82.4 °F 89.5 °F 75.2 °F 79% 29.81 in 10.0 mi NW 15.0 mph 24.2 mph N/A   Mostly Cloudy
8:26 PM 82.4 °F 89.5 °F 75.2 °F 79% 29.80 in 10.0 mi NNW 12.7 mph 21.9 mph N/A   Scattered Clouds
8:54 PM 82.0 °F 89.4 °F 75.9 °F 82% 29.87 in 10.0 mi NW 11.5 mph 21.9 mph 0.00 in Rain Light Rain
9:47 PM 80.6 °F 87.1 °F 77.0 °F 89% 29.84 in 1.8 mi NNW 19.6 mph 38.0 mph 0.06 in Rain Heavy Rain
9:51 PM 78.8 °F - 75.2 °F 89% 29.84 in 0.8 mi North 24.2 mph 50.6 mph 0.15 in Rain Heavy Rain
9:54 PM 77.0 °F - 73.9 °F 90% 29.91 in 0.8 mi North 23.0 mph 50.6 mph 0.38 in Rain Heavy Rain
10:01 PM 75.2 °F - 73.4 °F 94% 29.83 in 1.2 mi NNW 16.1 mph 36.8 mph 0.44 in Rain Heavy Rain
10:07 PM 75.2 °F - 73.4 °F 94% 29.83 in 2.5 mi NNW 17.3 mph 26.5 mph 0.49 in Rain Heavy Rain
10:14 PM 75.2 °F - 73.4 °F 94% 29.83 in 3.0 mi NNW 15.0 mph 24.2 mph 0.53 in Rain Heavy Rain
10:37 PM 75.2 °F - 73.4 °F 94% 29.81 in 10.0 mi NNW 15.0 mph - 0.57 in   Mostly Cloudy
10:54 PM 77.0 °F - 75.0 °F 94% 29.86 in 10.0 mi NNW 12.7 mph - 0.57 in   Scattered Clouds
11:32 PM 78.8 °F - 75.2 °F 89% 29.80 in 10.0 mi NNW 13.8 mph 23.0 mph N/A   Overcast
11:39 PM 78.8 °F - 75.2 °F 89% 29.80 in 10.0 mi NNW 13.8 mph 23.0 mph N/A   Overcast
11:54 PM 78.1 °F - 75.0 °F 90% 29.86 in 10.0 mi NW 10.4 mph - N/A   Mostly Cloudy